This is the latest recevied weather packets stored in our database for station/object OK1VCF-5. If no packets are shown the sender has not sent any weather packets the latest 10 day(s).
| Time | Temp. | Humidity | Pressure | Rain* | Wind** | Luminosity | Snow |
|---|---|---|---|---|---|---|---|
| 1777651803 | 20.56° C | 32% | 1029.7 hPa | - | - | - | - |
| 1777650904 | 20.56° C | 29% | 1029.8 hPa | - | - | - | - |
| 1777650003 | 21.11° C | 31% | 1029.8 hPa | - | - | - | - |
| 1777649103 | 21.11° C | 32% | 1030 hPa | - | - | - | - |
| 1777648203 | 21.11° C | 30% | 1030.2 hPa | - | - | - | - |
| 1777647301 | 21.67° C | 29% | 1030.3 hPa | - | - | - | - |
| 1777646401 | 21.67° C | 28% | 1030.2 hPa | - | - | - | - |
| 1777645501 | 21.67° C | 28% | 1030.4 hPa | - | - | - | - |
| 1777644599 | 22.78° C | 28% | 1030.6 hPa | - | - | - | - |
| 1777640995 | 22.22° C | 30% | 1031 hPa | - | - | - | - |
| 1777639194 | 23.33° C | 30% | 1031.3 hPa | - | - | - | - |
| 1777638291 | 22.22° C | 32% | 1031.6 hPa | - | - | - | - |
| 1777637393 | 22.22° C | - | - | - | - | - | - |
| 1777637392 | 22.22° C | 32% | 1031.6 hPa | - | - | - | - |
| 1777636491 | 22.22° C | 31% | 1031.8 hPa | - | - | - | - |
| 1777635589 | 21.11° C | 30% | 1031.9 hPa | - | - | - | - |
| 1777634689 | 22.22° C | 31% | 1032.2 hPa | - | - | - | - |
| 1777633789 | 21.67° C | 34% | 1032.2 hPa | - | - | - | - |
| 1777632888 | 21.11° C | 34% | 1032.4 hPa | - | - | - | - |
| 1777631988 | 20.56° C | 38% | 1032.5 hPa | - | - | - | - |
| 1777631086 | 20° C | 37% | 1032.8 hPa | - | - | - | - |
| 1777630184 | 20° C | 38% | 1033 hPa | - | - | - | - |
| 1777629285 | 20° C | 36% | 1033.2 hPa | - | - | - | - |
| 1777628384 | 20° C | 38% | 1033.2 hPa | - | - | - | - |
| 1777627485 | 19.44° C | 38% | 1033.4 hPa | - | - | - | - |
* Rain since midnight (hover to see other rain measurements)
** Current wind speed in m/s (hover to see current wind gust speed)